Le nostre stazioni meteo in Italia

Pubblicità
Il mio iltempo24.it
Rodkallen, Svezia (2188): Temperatura & dewpoint: 12.01.2020 10:00:00 - 18.01.2020 10:00:00 (CET)Rodkallen, Svezia (2188): velocità del vento & gusts: 12.01.2020 10:00:00 - 18.01.2020 10:00:00 (CET)Rodkallen, Svezia (2188): direzione del vento: 12.01.2020 10:00:00 - 18.01.2020 10:00:00 (CET)Rodkallen, Svezia (2188): visibility: 12.01.2020 10:00:00 - 18.01.2020 10:00:00 (CET)Rodkallen, Svezia (2188): precipitazioni: 12.01.2020 10:00:00 - 18.01.2020 10:00:00 (CET)
Data & Tempo tt [°C] td [°C] ff [km/h] ff [kn] fx [km/h] fx [kn] dd vv [km] rr [mm]
18.01.2020 10:00:00 - - - - - - - - -
18.01.2020 09:00:00 -5,0 -6,4 27 14 37 20 N 2,9 0,2
18.01.2020 08:00:00 -5,3 -6,7 22 12 31 17 N 2,1 0,2
18.01.2020 07:00:00 -5,3 -6,7 22 12 32 18 NNO 1,8 0,2
18.01.2020 06:00:00 -5,3 -6,7 22 12 32 17 N 3,1 0,2
18.01.2020 05:00:00 -5,3 -6,7 25 14 35 19 N 3,6 0,2
18.01.2020 04:00:00 -5,7 -7,2 24 13 34 18 N 2,5 0,2
18.01.2020 03:00:00 -5,9 -7,3 23 13 35 19 N 2,1 0,3
18.01.2020 02:00:00 -5,8 -7,3 22 12 29 16 N 1,6 0,6
18.01.2020 01:00:00 -5,8 -7,2 21 11 27 14 N 1,6 0,3
18.01.2020 00:00:00 -5,1 -6,5 20 11 28 15 N 4,5 0,1
17.01.2020 23:00:00 -4,7 -6,1 24 13 32 17 N 12 -
17.01.2020 22:00:00 -5,1 -6,5 20 11 26 14 N 8 0,1
17.01.2020 21:00:00 -5,4 -6,8 19 10 29 16 N 8 0,0
17.01.2020 20:00:00 -5,5 -6,9 22 12 28 15 N 7 0,1
17.01.2020 19:00:00 -5,7 -7,4 23 13 35 19 NNE 22 0,0
17.01.2020 18:00:00 -5,7 -7,4 26 14 34 18 N 19 0,0
17.01.2020 17:00:00 -5,6 -7,3 20 11 26 14 N 24 0,0
17.01.2020 16:00:00 -5,1 -6,6 19 10 24 13 N 14 0,0
17.01.2020 15:00:00 -5,3 -7,1 16 9 23 12 N 31 0,0
17.01.2020 14:00:00 -5,3 -7,4 17 9 29 15 NNE 33 0,0
17.01.2020 13:00:00 -5,7 -7,7 24 13 34 18 N 42 0,0
17.01.2020 12:00:00 -4,9 -6,7 26 14 35 19 N 36 0,0
17.01.2020 11:00:00 -4,1 -5,6 23 12 33 18 N 33 0,0
17.01.2020 10:00:00 -4,5 -5,5 24 13 31 17 N 27 0,0
17.01.2020 09:00:00 -4,3 -5,1 19 10 26 14 N 46 0,0
17.01.2020 08:00:00 -4,3 -5,1 19 10 24 13 N 9 0,0
17.01.2020 07:00:00 0,5 -0,8 13 7 18 10 OSO 43 0,0
17.01.2020 06:00:00 0,4 -0,9 19 10 23 13 SSO 47 0,0
17.01.2020 05:00:00 0,6 -0,9 21 11 32 17 SO 50 0,0
17.01.2020 04:00:00 0,2 -1,2 18 10 24 13 SSO 50 0,0
17.01.2020 03:00:00 0,0 -1,4 20 11 26 14 SSO 50 0,0
17.01.2020 02:00:00 -0,2 -1,8 16 8 26 14 SO 50 0,0
17.01.2020 01:00:00 0,2 -1,6 22 12 34 19 SO 50 0,0
17.01.2020 00:00:00 0,2 -1,6 29 16 37 20 SO 50 0,0
16.01.2020 23:00:00 0,1 -1,0 28 15 35 19 SSO 47 0,5
16.01.2020 22:00:00 -0,4 -1,3 22 12 37 20 SSO 38 0,0
16.01.2020 21:00:00 -0,2 -1,3 31 17 42 23 SSO 50 0,0
16.01.2020 20:00:00 -0,3 -1,3 26 14 39 21 SSO 50 0,0
16.01.2020 19:00:00 -1,7 -2,8 20 11 28 15 S 6 0,0
16.01.2020 18:00:00 -2,9 -4,8 14 8 20 11 S 32 0,0
16.01.2020 17:00:00 -3,8 -5,6 16 9 21 12 S 50 0,0
16.01.2020 16:00:00 -4,8 -6,0 13 7 19 10 SSO 41 0,0
16.01.2020 15:00:00 -5,7 -6,6 3 1 12 7 SO 14 0,0
16.01.2020 14:00:00 -6,2 -7,3 4 2 10 5 NO 15 0,0
16.01.2020 13:00:00 -5,9 -7,1 10 5 15 8 O 18 0,0
16.01.2020 12:00:00 -5,8 -7,0 5 3 12 6 NO 27 0,0
16.01.2020 11:00:00 -5,9 -7,1 4 2 13 7 NO 50 0,0
16.01.2020 10:00:00 -6,0 -7,3 4 2 11 6 N 50 0,0
16.01.2020 09:00:00 -6,2 -7,7 12 6 22 12 NNE 50 0,0
16.01.2020 08:00:00 -6,2 -7,7 15 8 24 13 N 50 0,0
16.01.2020 07:00:00 -6,5 -8,2 16 8 22 12 NO 50 0,0
16.01.2020 06:00:00 -6,0 -7,4 14 8 24 13 NNO 50 0,0
16.01.2020 05:00:00 -5,6 -6,8 9 5 23 12 NNO 12 0,0
16.01.2020 04:00:00 -5,7 -6,6 17 9 24 13 NO 6 0,0
16.01.2020 03:00:00 -5,0 -5,8 13 7 23 12 NNO 2,1 0,2
16.01.2020 02:00:00 -4,5 -5,2 14 7 21 11 NNO 2,1 0,1
16.01.2020 01:00:00 -4,4 -4,9 14 7 22 12 N 10 -
16.01.2020 00:00:00 -4,3 -4,8 18 10 26 14 N 29 -
15.01.2020 23:00:00 -4,2 -4,6 18 10 23 13 N 50 0,0
15.01.2020 22:00:00 -3,2 -3,5 15 8 18 10 N 3,0 0,0
15.01.2020 21:00:00 -1,8 -2,1 8 4 13 7 NNO 0,5 0,0
15.01.2020 20:00:00 -1,9 -2,2 7 4 17 9 NO 0,5 0,0
15.01.2020 19:00:00 -1,5 -1,8 11 6 16 9 O 0,4 0,0
15.01.2020 18:00:00 -1,1 -1,4 10 6 17 9 O 0,7 0,1
15.01.2020 17:00:00 -0,4 -0,8 7 4 13 7 OSO 0,6 0,0
15.01.2020 16:00:00 -0,2 -0,5 8 4 11 6 SO 2,5 0,0
15.01.2020 15:00:00 0,0 -0,4 8 5 18 10 SO 7 0,0
15.01.2020 14:00:00 0,2 -0,2 13 7 22 12 SSO 11 0,0
15.01.2020 13:00:00 0,5 0,1 20 11 23 13 S 9 0,0
15.01.2020 12:00:00 0,6 0,0 19 10 23 12 S 13 0,0
15.01.2020 11:00:00 0,5 -0,1 14 7 28 15 S 16 0,0
15.01.2020 10:00:00 0,7 -0,1 25 13 29 16 S 20 0,0
15.01.2020 09:00:00 0,7 -0,3 15 8 31 17 SSO 50 0,0
15.01.2020 08:00:00 0,8 -0,4 23 12 31 17 SSO 50 0,0
15.01.2020 07:00:00 1,0 -0,2 27 14 32 17 SSO 50 0,0
15.01.2020 06:00:00 1,1 0,1 26 14 34 18 SSO 48 0,0
15.01.2020 05:00:00 1,1 -0,1 24 13 35 19 SSO 43 0,0
15.01.2020 04:00:00 1,2 -0,1 29 15 35 19 SSO 46 0,0
15.01.2020 03:00:00 1,4 0,1 29 16 35 19 SSO 37 0,0
15.01.2020 02:00:00 1,5 0,2 28 15 35 19 SSO 39 0,0
15.01.2020 01:00:00 1,2 -0,3 29 15 34 19 SSO 39 0,0
15.01.2020 00:00:00 1,4 0,1 29 16 37 20 SSO 31 0,0
14.01.2020 23:00:00 1,5 0,6 32 17 42 23 SSO 18 0,0
14.01.2020 22:00:00 1,5 0,6 36 20 41 22 SSO 12 0,0
14.01.2020 21:00:00 1,4 0,7 34 19 49 27 S 9 0,0
14.01.2020 20:00:00 1,3 0,6 40 22 59 32 S 9 0,4
14.01.2020 19:00:00 0,7 0,0 51 27 64 35 S 3,8 0,9
14.01.2020 18:00:00 0,6 -0,1 46 25 62 34 SSE 4,0 0,3
14.01.2020 17:00:00 1,0 0,0 50 27 64 34 SSE 4,3 0,1
14.01.2020 16:00:00 1,4 0,4 44 24 55 30 SSE 9 1,0
14.01.2020 15:00:00 1,5 0,2 46 25 67 36 S 7 0,1
14.01.2020 14:00:00 1,7 0,2 52 28 64 35 S 11 0,0
14.01.2020 13:00:00 1,5 -0,1 46 25 58 31 S 15 0,0
14.01.2020 12:00:00 0,8 -1,0 38 20 56 31 SSO 19 0,0
14.01.2020 11:00:00 0,5 -2,5 35 19 48 26 S 27 0,0
14.01.2020 10:00:00 0,3 -2,8 38 20 46 25 S 32 0,0
14.01.2020 09:00:00 0,5 -2,2 30 16 36 19 S 42 0,0
14.01.2020 08:00:00 0,5 -1,9 21 11 40 22 SSO 40 0,0
14.01.2020 07:00:00 0,7 -1,5 28 15 34 18 SSO 36 0,0
14.01.2020 06:00:00 0,7 -1,7 22 12 37 20 SSO 50 0,0
14.01.2020 05:00:00 0,9 -1,3 29 16 36 20 SSO 50 0,0
14.01.2020 04:00:00 0,8 -1,3 16 9 35 19 SSO 50 0,0
14.01.2020 03:00:00 0,9 -1,5 34 18 39 21 SO 50 0,0
14.01.2020 02:00:00 0,9 -1,7 18 10 30 16 SO 50 0,0
14.01.2020 01:00:00 1,3 -1,9 28 15 32 17 OSO 50 0,0
14.01.2020 00:00:00 0,9 -2,2 23 13 35 19 SO 50 0,0
13.01.2020 23:00:00 1,0 -2,1 25 14 32 18 SO 50 0,0
13.01.2020 22:00:00 1,3 -2,2 27 15 35 19 OSO 50 0,0
13.01.2020 21:00:00 1,2 -2,6 32 17 38 21 SO 50 0,0
13.01.2020 20:00:00 1,1 -2,8 35 19 47 26 SSO 50 0,0
13.01.2020 19:00:00 1,4 -2,7 41 22 50 27 SSO 50 0,0
13.01.2020 18:00:00 1,1 -2,3 35 19 44 24 SSO 50 0,0
13.01.2020 17:00:00 0,6 -2,5 39 21 48 26 SSO 50 0,0
13.01.2020 16:00:00 0,6 -2,1 40 22 49 27 SSO 50 0,0
13.01.2020 15:00:00 0,5 -2,2 38 20 49 27 SO 50 0,0
13.01.2020 14:00:00 0,2 -2,3 33 18 42 23 SO 50 0,0
13.01.2020 13:00:00 0,3 -2,9 38 21 46 25 SO 50 0,0
13.01.2020 12:00:00 -0,1 -2,8 35 19 41 22 SO 50 0,0
13.01.2020 11:00:00 -0,2 -2,6 26 14 40 21 SO 50 0,0
13.01.2020 10:00:00 0,0 -2,7 31 17 40 22 SO 50 0,0
13.01.2020 09:00:00 -0,4 -2,9 34 19 44 24 SO 50 0,0
13.01.2020 08:00:00 -0,3 -2,8 27 15 41 22 SO 50 0,0
13.01.2020 07:00:00 -0,4 -3,1 31 17 40 21 SO 50 0,0
13.01.2020 06:00:00 -0,3 -3,0 34 18 40 21 SO 50 0,0
13.01.2020 05:00:00 -0,2 -2,6 23 13 39 21 SO 50 0,0
13.01.2020 04:00:00 0,0 -2,7 36 19 44 24 SO 50 0,0
13.01.2020 03:00:00 0,1 -2,6 32 17 40 22 SO 50 0,0
13.01.2020 02:00:00 0,3 -2,1 34 18 40 22 SO 50 0,0
13.01.2020 01:00:00 0,0 -2,9 20 11 33 18 OSO 50 0,0
13.01.2020 00:00:00 0,2 -3,0 26 14 32 17 OSO 50 0,0
12.01.2020 23:00:00 0,1 -2,6 19 10 32 18 OSO 50 0,0
12.01.2020 22:00:00 0,3 -2,6 31 17 38 20 OSO 37 0,0
12.01.2020 21:00:00 0,3 -2,6 32 17 40 22 OSO 41 0,0
12.01.2020 20:00:00 0,3 -2,4 27 15 36 20 OSO 27 0,0
12.01.2020 19:00:00 0,6 -2,3 32 17 41 22 OSO 21 0,0
12.01.2020 18:00:00 0,8 -2,1 31 17 41 22 OSO 17 0,0
12.01.2020 17:00:00 0,9 -2,2 35 19 41 22 OSO 16 0,0
12.01.2020 16:00:00 0,9 -2,4 27 14 43 23 SO 15 0,0
12.01.2020 15:00:00 1,2 -2,4 25 13 33 18 SO 15 0,0
12.01.2020 14:00:00 1,4 -2,7 27 14 36 19 OSO 16 0,0
12.01.2020 13:00:00 1,5 -2,4 29 16 44 24 OSO 18 0,0
12.01.2020 12:00:00 1,8 -2,3 36 19 41 22 OSO 21 0,0
12.01.2020 11:00:00 1,7 -1,9 35 19 41 22 SO 21 0,0
12.01.2020 10:00:00 1,9 -1,4 30 16 37 20 SO 21 0,0

tt = Temperatura
td = dewpoint
ff = velocità del vento
fx = gusts
dd = direzione del vento
vv = visibility
rr = precipitazioni

Stazioni seguenti

WeatherPro
AMSI
MeteoEarth